| time (UTC) | temp F | wind direction | speed MPH | gust MPH | rain 1hr in | rain 24hr in | rain mn in | humidity % | barometer mb |
| 20260903001122 | 43 | 257 | 4.0 | 0.0 | 0.11 | 0.00 | 0.65 | 95 | 1007.4 |
| 20260903000623 | 43 | 248 | 4.0 | 4.0 | 0.11 | 0.00 | 0.64 | 95 | 1007.3 |
| 20260903000124 | 43 | 311 | 8.0 | 8.0 | 0.11 | 0.00 | 0.63 | 95 | 1007.3 |
| 20260902235622 | 43 | 280 | 5.0 | 1.0 | 0.14 | 0.00 | 0.62 | 95 | 1007.3 |
| 20260902235123 | 43 | 293 | 4.0 | 8.0 | 0.14 | 0.00 | 0.61 | 95 | 1007.2 |
| 20260902234624 | 43 | 257 | 9.0 | 2.0 | 0.14 | 0.00 | 0.60 | 95 | 1007.0 |
| 20260902234125 | 44 | 267 | 6.0 | 10.0 | 0.14 | 0.00 | 0.59 | 95 | 1007.0 |
| 20260902233626 | 44 | 198 | 6.0 | 0.0 | 0.14 | 0.00 | 0.58 | 95 | 1006.9 |
| 20260902233125 | 44 | 307 | 4.0 | 4.0 | 0.14 | 0.00 | 0.57 | 96 | 1007.2 |
| 20260902232626 | 44 | 278 | 8.0 | 9.0 | 0.14 | 0.00 | 0.56 | 95 | 1007.0 |
| 20260902232126 | 44 | 298 | 4.0 | 3.0 | 0.14 | 0.00 | 0.55 | 96 | 1006.8 |
| 20260902231627 | 45 | 270 | 7.0 | 4.0 | 0.14 | 0.00 | 0.54 | 96 | 1007.0 |
| 20260902231129 | 45 | 270 | 5.0 | 6.0 | 0.14 | 0.00 | 0.53 | 96 | 1006.9 |
| 20260902230629 | 45 | 271 | 4.0 | 4.0 | 0.14 | 0.00 | 0.52 | 96 | 1006.8 |
| 20260902230153 | 45 | 259 | 7.0 | 3.0 | 0.14 | 0.00 | 0.52 | 96 | 1006.9 |
| 20260902225129 | 45 | 174 | 7.0 | 3.0 | 0.11 | 0.00 | 0.50 | 96 | 1006.8 |
| 20260902224630 | 44 | 205 | 5.0 | 2.0 | 0.11 | 0.00 | 0.49 | 96 | 1006.7 |
| 20260902224128 | 45 | 224 | 3.0 | 5.0 | 0.11 | 0.00 | 0.48 | 96 | 1006.7 |
| 20260902223629 | 45 | 284 | 1.0 | 0.0 | 0.11 | 0.00 | 0.46 | 96 | 1006.8 |
| 20260902222631 | 45 | 301 | 2.0 | 2.0 | 0.11 | 0.00 | 0.42 | 96 | 1006.7 |
| 20260902222132 | 45 | 125 | 5.0 | 1.0 | 0.11 | 0.00 | 0.42 | 96 | 1006.4 |
| 20260902221630 | 45 | 238 | 5.0 | 3.0 | 0.11 | 0.00 | 0.40 | 96 | 1006.6 |
| 20260902220632 | 45 | 231 | 3.0 | 1.0 | 0.11 | 0.00 | 0.38 | 96 | 1006.4 |
| 20260902220133 | 45 | 274 | 4.0 | 2.0 | 0.11 | 0.00 | 0.38 | 95 | 1006.4 |
| 20260902215633 | 45 | 266 | 4.0 | 3.0 | 0.11 | 0.00 | 0.36 | 96 | 1006.7 |
| 20260902215132 | 45 | 256 | 1.0 | 2.0 | 0.11 | 0.00 | 0.34 | 95 | 1006.7 |
| 20260902214633 | 45 | 276 | 4.0 | 4.0 | 0.11 | 0.00 | 0.33 | 95 | 1006.6 |
| 20260902214134 | 45 | 221 | 1.0 | 1.0 | 0.11 | 0.00 | 0.32 | 96 | 1006.6 |
| 20260902213136 | 45 | 266 | 6.0 | 7.0 | 0.11 | 0.00 | 0.29 | 95 | 1006.7 |
| 20260902212645 | 45 | 291 | 1.0 | 0.0 | 0.11 | 0.00 | 0.28 | 95 | 1006.6 |
| 20260902212135 | 45 | 278 | 4.0 | 8.0 | 0.11 | 0.00 | 0.28 | 95 | 1006.4 |
| 20260902210638 | 45 | 270 | 3.0 | 16.0 | 0.11 | 0.00 | 0.26 | 95 | 1006.3 |
| 20260902210136 | 44 | 205 | 2.0 | 6.0 | 0.11 | 0.00 | 0.26 | 95 | 1006.3 |
| 20260902205137 | 44 | 269 | 4.0 | 5.0 | 0.09 | 0.00 | 0.26 | 95 | 1006.4 |
| 20260902204139 | 44 | 179 | 3.0 | 1.0 | 0.09 | 0.00 | 0.25 | 93 | 1006.4 |
| 20260902203637 | 44 | 281 | 1.0 | 0.0 | 0.09 | 0.00 | 0.25 | 93 | 1006.6 |
| 20260902202639 | 43 | 264 | 4.0 | 5.0 | 0.09 | 0.00 | 0.23 | 93 | 1006.7 |
| 20260902201641 | 44 | 273 | 1.0 | 3.0 | 0.09 | 0.00 | 0.20 | 92 | 1006.7 |
| 20260902201140 | 44 | 309 | 4.0 | 2.0 | 0.09 | 0.00 | 0.18 | 91 | 1006.7 |
| 20260902200642 | 44 | 233 | 2.0 | 4.0 | 0.09 | 0.00 | 0.17 | 89 | 1006.7 |
| 20260902200142 | 44 | 269 | 4.0 | 4.0 | 0.09 | 0.00 | 0.16 | 90 | 1006.7 |
| 20260902195145 | 44 | 284 | 0.0 | 0.0 | 0.05 | 0.00 | 0.14 | 90 | 1006.7 |
| 20260902194142 | 44 | 253 | 3.0 | 1.0 | 0.05 | 0.00 | 0.12 | 87 | 1006.7 |
| 20260902193643 | 44 | 293 | 0.0 | 0.0 | 0.05 | 0.00 | 0.12 | 88 | 1006.8 |
| 20260902193145 | 44 | 293 | 0.0 | 0.0 | 0.05 | 0.00 | 0.10 | 89 | 1006.8 |
| 20260902192645 | 44 | 293 | 0.0 | 0.0 | 0.05 | 0.00 | 0.09 | 89 | 1006.9 |
| 20260902192143 | 44 | 293 | 0.0 | 0.0 | 0.05 | 0.00 | 0.08 | 90 | 1007.0 |
| 20260902191644 | 44 | 312 | 1.0 | 1.0 | 0.05 | 0.00 | 0.07 | 88 | 1007.0 |
| 20260902191145 | 44 | 318 | 2.0 | 1.0 | 0.05 | 0.00 | 0.07 | 87 | 1007.0 |
| 20260902185147 | 44 | 162 | 0.0 | 0.0 | 0.00 | 0.00 | 0.06 | 86 | 1007.3 |
| 20260902184648 | 44 | 210 | 2.0 | 0.0 | 0.00 | 0.00 | 0.05 | 84 | 1007.2 |
| 20260902183650 | 45 | 210 | 2.0 | 1.0 | 0.00 | 0.00 | 0.04 | 84 | 1007.3 |
| 20260902183201 | 45 | 263 | 1.0 | 0.0 | 0.00 | 0.00 | 0.04 | 85 | 1007.3 |
| 20260902182702 | 45 | 239 | 1.0 | 1.0 | 0.00 | 0.00 | 0.04 | 84 | 1007.3 |
| 20260902182149 | 45 | 235 | 4.0 | 2.0 | 0.00 | 0.00 | 0.03 | 83 | 1007.4 |
| 20260902181650 | 46 | 203 | 2.0 | 1.0 | 0.00 | 0.00 | 0.02 | 81 | 1007.3 |
| 20260902181151 | 46 | 210 | 4.0 | 1.0 | 0.00 | 0.00 | 0.02 | 77 | 1007.2 |
| 20260902180650 | 46 | 201 | 2.0 | 0.0 | 0.00 | 0.00 | 0.02 | 77 | 1007.2 |
| 20260902180150 | 47 | 214 | 5.0 | 2.0 | 0.00 | 0.00 | 0.01 | 74 | 1007.2 |
| 20260902175652 | 47 | 215 | 2.0 | 1.0 | 0.00 | 0.00 | 0.01 | 73 | 1007.0 |
| 20260902174654 | 47 | 274 | 1.0 | 2.0 | 0.00 | 0.00 | 0.01 | 72 | 1006.9 |
| 20260902174152 | 47 | 277 | 1.0 | 4.0 | 0.00 | 0.00 | 0.01 | 74 | 1007.0 |
| 20260902173652 | 47 | 184 | 3.0 | 1.0 | 0.00 | 0.00 | 0.01 | 73 | 1006.9 |
| 20260902173153 | 47 | 183 | 2.0 | 6.0 | 0.00 | 0.00 | 0.01 | 70 | 1006.9 |
| 20260902172711 | 47 | 184 | 0.0 | 2.0 | 0.00 | 0.00 | 0.01 | 70 | 1006.9 |
| 20260902172156 | 47 | 262 | 2.0 | 1.0 | 0.00 | 0.00 | 0.01 | 70 | 1006.9 |
| 20260902171154 | 47 | 165 | 3.0 | 1.0 | 0.00 | 0.00 | 0.01 | 70 | 1007.0 |
| 20260902170655 | 47 | 307 | 3.0 | 5.0 | 0.00 | 0.00 | 0.01 | 70 | 1007.0 |
| 20260902165657 | 47 | 309 | 2.0 | 5.0 | 0.00 | 0.00 | 0.01 | 71 | 1007.0 |
| 20260902165155 | 47 | 235 | 4.0 | 7.0 | 0.00 | 0.00 | 0.01 | 70 | 1007.2 |
| 20260902164157 | 47 | 255 | 2.0 | 0.0 | 0.00 | 0.00 | 0.01 | 71 | 1007.0 |
| 20260902163658 | 47 | 152 | 1.0 | 0.0 | 0.00 | 0.00 | 0.01 | 70 | 1007.2 |
| 20260902163158 | 47 | 225 | 1.0 | 6.0 | 0.00 | 0.00 | 0.01 | 70 | 1007.2 |
| 20260902161159 | 47 | 165 | 2.0 | 0.0 | 0.00 | 0.00 | 0.01 | 71 | 1007.2 |
| 20260902160158 | 46 | 169 | 1.0 | 1.0 | 0.00 | 0.00 | 0.01 | 71 | 1007.2 |
| 20260902155700 | 46 | 236 | 0.0 | 3.0 | 0.00 | 0.00 | 0.01 | 72 | 1007.3 |
| 20260902153700 | 45 | 65 | 0.0 | 0.0 | 0.00 | 0.00 | 0.01 | 77 | 1007.6 |
| 20260902153201 | 45 | 245 | 1.0 | 3.0 | 0.00 | 0.00 | 0.01 | 77 | 1007.6 |
| 20260902152704 | 45 | 267 | 0.0 | 1.0 | 0.00 | 0.00 | 0.01 | 77 | 1007.6 |
| 20260902152202 | 45 | 176 | 1.0 | 3.0 | 0.00 | 0.00 | 0.01 | 78 | 1007.5 |
| 20260902151703 | 45 | 203 | 1.0 | 0.0 | 0.00 | 0.00 | 0.01 | 78 | 1007.5 |
| 20260902150702 | 44 | 291 | 4.0 | 5.0 | 0.00 | 0.00 | 0.01 | 81 | 1007.6 |
| 20260902145704 | 44 | 264 | 0.0 | 0.0 | 0.00 | 0.00 | 0.01 | 84 | 1007.7 |
| 20260902144204 | 43 | 304 | 0.0 | 3.0 | 0.00 | 0.00 | 0.01 | 87 | 1007.9 |
| 20260902143706 | 43 | 260 | 3.0 | 0.0 | 0.00 | 0.00 | 0.01 | 86 | 1007.9 |
| 20260902143207 | 42 | 255 | 1.0 | 1.0 | 0.00 | 0.00 | 0.01 | 88 | 1007.7 |
| 20260902142708 | 42 | 25 | 0.0 | 3.0 | 0.00 | 0.00 | 0.01 | 90 | 1008.0 |
| 20260902142206 | 42 | 253 | 0.0 | 0.0 | 0.00 | 0.00 | 0.01 | 91 | 1008.1 |
| 20260902141706 | 42 | 267 | 0.0 | 0.0 | 0.00 | 0.00 | 0.01 | 92 | 1008.1 |
| 20260902140708 | 42 | 176 | 0.0 | 0.0 | 0.00 | 0.00 | 0.01 | 92 | 1008.1 |
| 20260902140209 | 42 | 176 | 0.0 | 0.0 | 0.00 | 0.00 | 0.01 | 91 | 1008.1 |
| 20260902135707 | 42 | 252 | 0.0 | 1.0 | 0.00 | 0.00 | 0.01 | 91 | 1008.0 |
| 20260902133711 | 43 | 325 | 0.0 | 0.0 | 0.00 | 0.00 | 0.01 | 91 | 1008.2 |
| 20260902132710 | 43 | 283 | 1.0 | 0.0 | 0.00 | 0.00 | 0.01 | 91 | 1008.3 |
| 20260902131711 | 43 | 349 | 2.0 | 2.0 | 0.00 | 0.00 | 0.01 | 92 | 1008.5 |
| 20260902131213 | 43 | 284 | 1.0 | 0.0 | 0.00 | 0.00 | 0.01 | 92 | 1008.5 |
| 20260902130710 | 43 | 249 | 1.0 | 0.0 | 0.00 | 0.00 | 0.01 | 92 | 1008.6 |
| 20260902125712 | 43 | 217 | 0.0 | 0.0 | 0.00 | 0.00 | 0.01 | 92 | 1008.6 |
| 20260902124213 | 43 | 302 | 1.0 | 2.0 | 0.00 | 0.00 | 0.01 | 92 | 1008.7 |
| 20260902123714 | 43 | 217 | 1.0 | 0.0 | 0.00 | 0.00 | 0.01 | 92 | 1008.8 |
| 20260902123215 | 43 | 249 | 0.0 | 0.0 | 0.00 | 0.00 | 0.01 | 92 | 1008.8 |
| 20260902122715 | 43 | 269 | 1.0 | 0.0 | 0.00 | 0.00 | 0.01 | 93 | 1008.8 |
| 20260902121714 | 43 | 312 | 3.0 | 3.0 | 0.00 | 0.00 | 0.01 | 94 | 1008.9 |
| 20260902121216 | 43 | 333 | 2.0 | 3.0 | 0.00 | 0.00 | 0.01 | 94 | 1008.9 |
| 20260902120716 | 43 | 278 | 2.0 | 1.0 | 0.00 | 0.00 | 0.01 | 94 | 1009.0 |
| 20260902120217 | 43 | 253 | 5.0 | 2.0 | 0.00 | 0.00 | 0.01 | 94 | 1009.2 |
| 20260902115719 | 43 | 326 | 1.0 | 5.0 | 0.00 | 0.00 | 0.01 | 94 | 1009.0 |
| 20260902114717 | 43 | 288 | 4.0 | 4.0 | 0.00 | 0.00 | 0.01 | 94 | 1009.2 |
| 20260902114219 | 43 | 349 | 3.0 | 3.0 | 0.00 | 0.00 | 0.01 | 94 | 1009.2 |
| 20260902113719 | 43 | 295 | 4.0 | 4.0 | 0.00 | 0.00 | 0.01 | 94 | 1009.2 |
| 20260902113220 | 42 | 211 | 0.0 | 2.0 | 0.00 | 0.00 | 0.01 | 95 | 1009.3 |
| 20260902112219 | 42 | 233 | 2.0 | 1.0 | 0.00 | 0.00 | 0.01 | 95 | 1009.4 |
| 20260902110220 | 42 | 226 | 0.0 | 0.0 | 0.00 | 0.00 | 0.01 | 95 | 1009.3 |
| 20260902105722 | 42 | 226 | 0.0 | 0.0 | 0.01 | 0.00 | 0.01 | 95 | 1009.3 |
| 20260902104724 | 42 | 276 | 1.0 | 3.0 | 0.01 | 0.00 | 0.01 | 95 | 1009.4 |
| 20260902104225 | 42 | 297 | 0.0 | 0.0 | 0.01 | 0.00 | 0.01 | 95 | 1009.4 |
| 20260902103723 | 42 | 263 | 0.0 | 0.0 | 0.01 | 0.00 | 0.01 | 95 | 1009.4 |
| 20260902102226 | 42 | 304 | 4.0 | 5.0 | 0.01 | 0.00 | 0.01 | 95 | 1009.5 |
| 20260902101727 | 42 | 309 | 2.0 | 2.0 | 0.01 | 0.00 | 0.01 | 95 | 1009.6 |
| 20260902101225 | 42 | 232 | 2.0 | 3.0 | 0.01 | 0.00 | 0.01 | 95 | 1009.6 |
| 20260902100727 | 42 | 255 | 2.0 | 0.0 | 0.01 | 0.00 | 0.01 | 95 | 1009.6 |
| 20260902100227 | 42 | 319 | 3.0 | 2.0 | 0.01 | 0.00 | 0.01 | 95 | 1009.6 |
| 20260902093729 | 43 | 298 | 4.0 | 6.0 | 0.00 | 0.00 | 0.01 | 95 | 1010.0 |
| 20260902092229 | 43 | 277 | 4.0 | 5.0 | 0.00 | 0.00 | 0.01 | 95 | 1010.2 |
| 20260902090233 | 43 | 309 | 1.0 | 1.0 | 0.00 | 0.00 | 0.01 | 95 | 1010.3 |
| 20260902085731 | 43 | 271 | 0.0 | 0.0 | 0.00 | 0.00 | 0.00 | 95 | 1010.1 |
| 20260902085233 | 43 | 267 | 1.0 | 4.0 | 0.00 | 0.00 | 0.00 | 95 | 1010.2 |
| 20260902084235 | 43 | 280 | 1.0 | 0.0 | 0.00 | 0.00 | 0.00 | 95 | 1010.2 |
| 20260902082735 | 43 | 271 | 4.0 | 2.0 | 0.00 | 0.00 | 0.00 | 95 | 1010.1 |
| 20260902082235 | 43 | 311 | 4.0 | 2.0 | 0.00 | 0.00 | 0.00 | 95 | 1010.2 |
| 20260902080236 | 43 | 294 | 3.0 | 4.0 | 0.00 | 0.00 | 0.00 | 95 | 1009.9 |
| 20260902075758 | 43 | 338 | 4.0 | 3.0 | 0.00 | 0.00 | 0.00 | 95 | 1009.8 |
| 20260902073739 | 43 | 311 | 2.0 | 4.0 | 0.00 | 0.00 | 0.00 | 93 | 1010.0 |
| 20260902073240 | 43 | 304 | 5.0 | 3.0 | 0.00 | 0.00 | 0.00 | 94 | 1010.0 |
| 20260902072242 | 43 | 297 | 6.0 | 8.0 | 0.00 | 0.00 | 0.00 | 94 | 1010.1 |
| 20260902071740 | 43 | 328 | 8.0 | 4.0 | 0.00 | 0.00 | 0.00 | 94 | 1010.0 |
| 20260902071241 | 43 | 343 | 4.0 | 6.0 | 0.00 | 0.00 | 0.00 | 94 | 1010.2 |
| 20260902070742 | 43 | 315 | 4.0 | 4.0 | 0.00 | 0.00 | 0.00 | 94 | 1010.2 |
| 20260902070243 | 43 | 329 | 3.0 | 3.0 | 0.00 | 0.00 | 0.00 | 94 | 1010.3 |
| 20260902065744 | 43 | 293 | 4.0 | 7.0 | 0.00 | 0.00 | 0.00 | 94 | 1010.3 |
| 20260902065242 | 43 | 314 | 5.0 | 2.0 | 0.00 | 0.00 | 0.00 | 94 | 1010.3 |
| 20260902064743 | 43 | 336 | 4.0 | 5.0 | 0.00 | 0.00 | 0.00 | 95 | 1010.5 |
| 20260902064244 | 43 | 308 | 8.0 | 4.0 | 0.00 | 0.00 | 0.00 | 95 | 1010.5 |
| 20260902063745 | 43 | 242 | 0.0 | 4.0 | 0.00 | 0.00 | 0.00 | 94 | 1010.6 |
| 20260902063246 | 43 | 294 | 5.0 | 5.0 | 0.00 | 0.00 | 0.00 | 94 | 1010.6 |
| 20260902062744 | 43 | 294 | 3.0 | 3.0 | 0.00 | 0.00 | 0.00 | 94 | 1010.7 |
| 20260902060748 | 44 | 329 | 3.0 | 3.0 | 0.00 | 0.00 | 0.00 | 94 | 1010.8 |
| 20260902055747 | 44 | 328 | 4.0 | 3.0 | 0.00 | 0.00 | 0.00 | 93 | 1010.9 |
| 20260902055248 | 44 | 311 | 5.0 | 3.0 | 0.00 | 0.00 | 0.00 | 93 | 1010.9 |
| 20260902054250 | 44 | 328 | 4.0 | 6.0 | 0.00 | 0.00 | 0.00 | 90 | 1011.1 |
| 20260902053749 | 44 | 302 | 5.0 | 2.0 | 0.00 | 0.00 | 0.00 | 90 | 1011.1 |
| 20260902053250 | 44 | 308 | 4.0 | 6.0 | 0.00 | 0.00 | 0.00 | 89 | 1011.1 |
| 20260902052251 | 44 | 318 | 4.0 | 5.0 | 0.00 | 0.00 | 0.00 | 89 | 1011.2 |
| 20260902051752 | 44 | 319 | 7.0 | 2.0 | 0.00 | 0.00 | 0.00 | 89 | 1011.2 |
| 20260902050751 | 44 | 329 | 4.0 | 4.0 | 0.00 | 0.00 | 0.00 | 88 | 1011.2 |
| 20260902050253 | 44 | 300 | 5.0 | 3.0 | 0.00 | 0.00 | 0.00 | 88 | 1011.2 |
| 20260902045753 | 44 | 318 | 7.0 | 4.0 | 0.00 | 0.00 | 0.00 | 88 | 1011.2 |
| 20260902044752 | 44 | 322 | 8.0 | 9.0 | 0.00 | 0.00 | 0.00 | 87 | 1011.1 |
| 20260902042757 | 46 | 328 | 3.0 | 4.0 | 0.00 | 0.00 | 0.00 | 82 | 1011.1 |
| 20260902041756 | 46 | 295 | 3.0 | 4.0 | 0.00 | 0.00 | 0.00 | 82 | 1011.2 |
| 20260902040759 | 46 | 288 | 4.0 | 3.0 | 0.00 | 0.00 | 0.00 | 81 | 1011.2 |
| 20260902035258 | 46 | 300 | 8.0 | 3.0 | 0.00 | 0.00 | 0.00 | 82 | 1011.2 |
| 20260902025805 | 47 | 301 | 5.0 | 7.0 | 0.00 | 0.00 | 0.00 | 79 | 1010.8 |
| 20260902024805 | 47 | 325 | 3.0 | 2.0 | 0.00 | 0.00 | 0.00 | 78 | 1010.8 |
| 20260902024303 | 47 | 315 | 5.0 | 5.0 | 0.00 | 0.00 | 0.00 | 79 | 1010.9 |
| 20260902022307 | 48 | 295 | 6.0 | 3.0 | 0.00 | 0.00 | 0.00 | 76 | 1010.9 |
| 20260902020309 | 48 | 284 | 5.0 | 9.0 | 0.00 | 0.00 | 0.00 | 76 | 1010.8 |
| 20260902014809 | 49 | 347 | 5.0 | 4.0 | 0.00 | 0.00 | 0.00 | 75 | 1010.9 |
| 20260902011812 | 52 | 288 | 6.0 | 9.0 | 0.00 | 0.00 | 0.00 | 67 | 1011.1 |
| 20260902005813 | 53 | 262 | 4.0 | 6.0 | 0.00 | 0.00 | 0.00 | 60 | 1010.9 |
| 20260902005315 | 53 | 281 | 3.0 | 5.0 | 0.00 | 0.00 | 0.00 | 60 | 1010.9 |
| 20260902003815 | 54 | 293 | 5.0 | 3.0 | 0.00 | 0.00 | 0.00 | 59 | 1011.1 |
| 20260902001818 | 55 | 300 | 5.0 | 5.0 | 0.00 | 0.00 | 0.00 | 55 | 1010.8 |